[[{"header":{"parameterUnit":"m.s-1","parameterCategory":1,"la1":30.2991,"la2":30.254,"lo1":-89.0895,"lo2":-89.0444,"dy":0.0017,"dx":0.0017,"nx":28,"ny":28,"refTime":"2024-04-21T09:00:00:Z","depth":0,"parameterNumber":2,"parameterNumberName":"U-component_of_WINDS"},"data":[0,0,0,0,0,0,0,0,0,0,0,0,0,0,0,0,0,0,0,0,0,0,0,0,0,0,0,0,0,0,0,0,0,0,0,0,0,0,0,0,0,0,0,0,0,0,0,0,0,0,0,0,0,0,0,0,0,0,-2.3933,-2.3933,0,-2.3991,-2.3992,-2.3992,-2.3942,-2.394,-2.3937,-2.3935,-2.3994,-2.3997,-2.4,0,0,0,0,0,0,0,0,0,0,0,0,0,-2.3776,-2.3779,-2.3933,-2.3933,-2.3934,-2.3991,-2.3992,-2.3992,-2.3942,-2.3939,-2.3937,-2.3935,-2.3992,-2.3996,-2.4001,0,0,0,0,0,0,0,0,0,0,0,0,0,-2.384,-2.378,-2.3933,-2.3916,-2.3915,-2.3991,-2.3992,-2.3993,-2.3943,-2.3939,-2.3936,-2.3933,-2.3991,-2.3996,-2.4001,-2.4096,0,0,-2.4017,-2.4019,0,0,0,0,0,0,0,0,-2.3836,-2.3846,-2.3918,-2.3917,-2.3916,-2.3956,-2.3957,-2.4027,-2.3943,-2.3932,-2.3935,-2.3932,-2.3983,-2.3989,-2.4007,-2.4099,-2.4101,-2.4018,-2.4021,-2.4023,-2.4025,0,0,0,0,0,0,0,-2.3832,-2.3843,-2.3956,-2.3919,-2.3918,-2.3905,-2.391,-2.397,-2.3974,-2.3933,-2.3929,-2.3937,-2.3982,-2.4002,-2.4008,-2.4102,-2.4018,-2.4022,-2.4025,-2.4027,-2.4272,-2.4275,0,0,0,0,0,0,-2.3829,-2.3839,-2.3954,-2.3957,-2.3868,-2.391,-2.3916,-2.3946,-2.3974,-2.3975,-2.3939,-2.3934,-2.3994,-2.4002,-2.401,-2.412,-2.4023,-2.4028,-2.4031,-2.4268,-2.4272,-2.4276,0,0,0,0,0,0,-2.3826,-2.384,-2.3951,-2.3897,-2.3911,-2.3916,-2.395,-2.3949,-2.3968,-2.3979,-2.3979,-2.3959,-2.3992,-2.4002,-2.4074,-2.4121,-2.403,-2.4035,-2.4264,-2.427,-2.4274,-2.4343,0,0,0,0,0,0,-2.3822,-2.3839,-2.3876,-2.3899,-2.3914,-2.4016,-2.3953,-2.3952,-2.3978,-2.3971,-2.3997,-2.3998,-2.3991,-2.4067,-2.408,-2.4127,-2.4039,-2.426,-2.4267,-2.4273,-2.4337,-2.435,-2.4361,0,0,0,0,0,-2.3816,-2.3893,-2.3878,-2.3892,-2.396,-2.4019,-2.4028,-2.4018,-2.3982,-2.4018,-2.4024,-2.3997,-2.4115,-2.4075,-2.4089,-2.4138,-2.4257,-2.4265,-2.4272,-2.4331,-2.4348,-2.4361,0,0,0,0,0,0,-2.3876,-2.3896,-2.3879,-2.3966,-2.3991,-2.401,-2.4056,-2.4036,-2.4071,-2.4064,-2.405,-2.4056,-2.4132,-2.4142,-2.4097,-2.423,-2.418,-2.4191,-2.422,-2.4236,-2.4248,-2.4243,-2.4043,0,0,0,0,0,-2.3899,-2.3946,-2.3961,-2.4036,-2.4049,-2.4051,-2.4076,-2.4067,-2.4092,-2.4102,-2.4114,-2.4139,-2.4181,-2.4209,-2.4249,-2.4339,-2.4342,-2.438,-2.4392,-2.4402,-2.4411,-2.4457,-2.4473,-2.4301,-2.4301,-2.4301,0,0,-2.3947,-2.3964,-2.3995,-2.4048,-2.4067,-2.4114,-2.406,-2.4114,-2.4148,-2.411,-2.4178,-2.4188,-2.4215,-2.4296,-2.4332,-2.4307,-2.4459,-2.4412,-2.442,-2.4423,-2.4466,-2.4482,-2.4497,-2.4306,-2.4305,-2.4304,0,0,-2.4059,-2.4078,-2.4141,-2.416,-2.4189,-2.4189,-2.4204,-2.4227,-2.4231,-2.43,-2.4271,-2.4313,-2.4386,-2.4406,-2.4426,-2.4544,-2.4519,-2.4558,-2.4621,-2.4666,-2.468,-2.4691,-2.4731,-2.4746,-2.4567,-2.4567,-2.4567,0,-2.4115,-2.4187,-2.4176,-2.4231,-2.4254,-2.4222,-2.4285,-2.4305,-2.4345,-2.4361,-2.4333,-2.4424,-2.444,-2.4523,-2.4552,-2.457,-2.4585,-2.4554,-2.4679,-2.4691,-2.4701,-2.4739,-2.4755,-2.4571,-2.4571,-2.457,-2.457,0,-2.4253,-2.4303,-2.4351,-2.439,-2.4419,-2.4478,-2.4475,-2.4506,-2.4493,-2.4496,-2.4565,-2.4583,-2.4625,-2.4645,-2.4634,-2.4727,-2.471,-2.4681,-2.463,-2.4722,-2.4757,-2.4772,-2.4577,-2.4576,-2.4574,-2.4573,0,0,-2.4403,-2.4435,-2.4453,-2.4469,-2.4498,-2.4536,-2.4593,-2.4634,-2.4659,-2.4688,-2.4734,-2.4797,-2.4769,-2.4792,-2.4782,-2.4822,-2.4912,-2.4788,-2.4788,-2.4808,-2.5013,-2.5033,-2.505,-2.4897,-2.4899,-2.4902,-2.501,0,-2.4515,-2.4614,-2.4605,-2.4698,-2.4743,-2.4713,-2.4762,-2.4784,-2.4789,-2.4826,-2.4831,-2.4874,-2.4836,-2.4849,-2.4887,-2.4893,-2.4952,-2.4885,-2.4937,-2.4939,-2.4929,-2.5069,-2.5091,-2.5192,-2.5024,-2.5026,-2.5028,0,-2.4658,-2.4691,-2.4788,-2.4809,-2.4827,-2.4872,-2.4907,-2.4945,-2.4969,-2.4969,-2.4994,-2.4977,-2.5033,-2.4982,-2.5057,-2.5012,-2.5033,-2.5039,-2.5042,-2.5045,-2.4988,-2.5073,-2.5224,-2.5239,-2.505,-2.5048,-2.5047,0,-2.4754,-2.4824,-2.489,-2.4906,-2.4932,-2.4963,-2.4976,-2.4997,-2.5021,-2.5053,-2.5068,-2.5106,-2.5126,-2.5155,-2.5148,-2.5112,-2.5225,-2.5174,-2.5225,-2.5225,-2.5248,-2.5246,-2.5402,-2.5266,-2.5265,-2.5265,-2.5265,0,-2.4878,-2.4938,-2.4934,-2.4975,-2.5041,-2.503,-2.5096,-2.5104,-2.5123,-2.5164,-2.5141,-2.518,-2.517,-2.5208,-2.5203,-2.5265,-2.5275,-2.5275,-2.5273,-2.5276,-2.5276,-2.5288,-2.528,-2.5269,-2.5268,-2.5267,-2.5267,0,-2.4997,-2.4996,-2.5067,-2.5086,-2.5092,-2.5139,-2.5155,-2.5193,-2.5195,-2.5247,-2.5258,-2.5261,-2.5305,-2.5302,-2.5351,-2.5348,-2.5424,-2.5414,-2.5415,-2.5413,-2.5463,-2.5457,-2.563,-2.5651,-2.5503,-2.5505,-2.5506,0,-2.5075,-2.512,-2.5144,-2.5169,-2.5184,-2.5226,-2.5251,-2.5242,-2.5268,-2.5299,-2.5333,-2.5374,-2.5406,-2.5477,-2.5483,-2.552,-2.551,-2.5568,-2.5515,-2.5517,-2.5508,-2.5505,-2.5508,-2.5578,-2.558,-2.5581,-2.5582,0,-2.5212,-2.5209,-2.5246,-2.5283,-2.5313,-2.5342,-2.5368,-2.539,-2.5384,-2.5415,-2.5459,-2.5484,-2.5534,-2.5575,-2.561,-2.5621,-2.56,-2.5599,-2.5612,-2.5615,-2.5613,-2.5612,-2.5441,-2.5595,-2.5593,-2.5592,-2.5592,-2.5591,-2.5311,-2.5349,-2.5371,-2.5413,-2.5431,-2.5456,-2.5492,-2.5498,-2.5535,-2.5575,-2.5568,-2.5617,-2.5638,-2.5683,-2.5698,-2.5735,-2.5714,-2.5734,-2.5739,-2.5743,-2.5748,-2.5609,-2.5742,-2.5742,-2.5741,-2.5741,-2.5741,0,-2.5445,-2.5458,-2.5496,-2.5533,-2.5565,-2.5544,-2.5571,-2.5599,-2.5642,-2.5664,-2.5697,-2.5747,-2.5786,-2.5795,-2.5832,-2.586,-2.5851,-2.587,-2.5866,-2.5869,-2.5766,-2.5749,-2.5876,-2.5876,-2.5876,-2.5876,-2.5876,-2.5876,-2.5519,-2.5582,-2.5581,-2.5653,-2.5665,-2.5713,-2.573,-2.5752,-2.5769,-2.5826,-2.5858,-2.5864,-2.588,-2.5918,-2.5953,-2.5954,-2.5968,-2.599,-2.5987,-2.589,-2.5877,-2.5864,-2.5848,-2.5994,-2.5994,-2.6087,-2.6088,-2.6089]},{"header":{"parameterUnit":"m.s-1","parameterCategory":1,"la1":30.2991,"la2":30.254,"lo1":-89.0895,"lo2":-89.0444,"dy":0.0017,"dx":0.0017,"nx":28,"ny":28,"refTime":"2024-04-21T09:00:00:Z","depth":0,"parameterNumber":3,"parameterNumberName":"V-component_of_WINDS"},"data":[0,0,0,0,0,0,0,0,0,0,0,0,0,0,0,0,0,0,0,0,0,0,0,0,0,0,0,0,0,0,0,0,0,0,0,0,0,0,0,0,0,0,0,0,0,0,0,0,0,0,0,0,0,0,0,0,0,0,-2.6396,-2.6397,0,-2.6473,-2.6474,-2.6474,-2.6463,-2.6462,-2.646,-2.6459,-2.6536,-2.6539,-2.6543,0,0,0,0,0,0,0,0,0,0,0,0,0,-2.6238,-2.6241,-2.6396,-2.6397,-2.6398,-2.6473,-2.6474,-2.6475,-2.6463,-2.6462,-2.646,-2.6459,-2.6535,-2.6539,-2.6543,0,0,0,0,0,0,0,0,0,0,0,0,0,-2.631,-2.6242,-2.6396,-2.6401,-2.6403,-2.6472,-2.6474,-2.6475,-2.6464,-2.6462,-2.646,-2.6458,-2.6534,-2.6539,-2.6543,-2.6612,0,0,-2.6558,-2.656,0,0,0,0,0,0,0,0,-2.6306,-2.6315,-2.64,-2.6401,-2.6403,-2.6456,-2.6446,-2.6521,-2.6464,-2.644,-2.6459,-2.6457,-2.6511,-2.6518,-2.6536,-2.6616,-2.6619,-2.6559,-2.6562,-2.6564,-2.6565,0,0,0,0,0,0,0,-2.6301,-2.6312,-2.6426,-2.6401,-2.6403,-2.6399,-2.6407,-2.646,-2.6486,-2.6442,-2.6442,-2.6451,-2.6512,-2.6532,-2.6538,-2.662,-2.6559,-2.6563,-2.6566,-2.6568,-2.6758,-2.676,0,0,0,0,0,0,-2.6294,-2.6308,-2.6424,-2.6429,-2.6348,-2.6404,-2.6413,-2.6441,-2.6485,-2.649,-2.6453,-2.645,-2.6524,-2.6532,-2.6541,-2.6623,-2.6564,-2.6568,-2.6571,-2.6756,-2.6759,-2.6761,0,0,0,0,0,0,-2.6291,-2.6305,-2.6421,-2.6368,-2.6383,-2.6408,-2.644,-2.6444,-2.6464,-2.6493,-2.6497,-2.6469,-2.6523,-2.6534,-2.6594,-2.6625,-2.657,-2.6575,-2.6753,-2.6757,-2.676,-2.6788,0,0,0,0,0,0,-2.6287,-2.6304,-2.6331,-2.6369,-2.6386,-2.6474,-2.6442,-2.6446,-2.6472,-2.647,-2.6509,-2.6513,-2.6522,-2.6587,-2.6599,-2.6631,-2.6579,-2.6751,-2.6755,-2.6759,-2.6785,-2.6792,-2.6798,0,0,0,0,0,-2.6281,-2.6336,-2.6332,-2.6346,-2.642,-2.6476,-2.6485,-2.6495,-2.6475,-2.6502,-2.652,-2.6512,-2.662,-2.6593,-2.6607,-2.6641,-2.6749,-2.6754,-2.6758,-2.6782,-2.6791,-2.6798,0,0,0,0,0,0,-2.63,-2.6341,-2.6337,-2.6406,-2.6438,-2.6474,-2.6508,-2.6504,-2.6541,-2.6537,-2.6547,-2.6556,-2.6617,-2.6635,-2.6604,-2.6709,-2.6682,-2.6689,-2.6695,-2.6703,-2.671,-2.6704,-2.6583,0,0,0,0,0,-2.6312,-2.6355,-2.6388,-2.6445,-2.6461,-2.6482,-2.6507,-2.6511,-2.6544,-2.6557,-2.658,-2.6611,-2.6652,-2.6679,-2.6718,-2.6787,-2.6795,-2.6817,-2.6824,-2.683,-2.6836,-2.6872,-2.6882,-2.6777,-2.6777,-2.6777,0,0,-2.6338,-2.6366,-2.6392,-2.645,-2.6475,-2.6518,-2.6493,-2.654,-2.6571,-2.6564,-2.6622,-2.664,-2.6676,-2.674,-2.677,-2.6757,-2.6867,-2.6836,-2.684,-2.6843,-2.6878,-2.6888,-2.6897,-2.678,-2.6779,-2.6779,0,0,-2.6407,-2.6432,-2.6482,-2.6508,-2.6546,-2.6559,-2.6571,-2.6608,-2.6619,-2.6678,-2.6673,-2.671,-2.6781,-2.6806,-2.6828,-2.6905,-2.6899,-2.6918,-2.6953,-2.6989,-2.6997,-2.7004,-2.703,-2.704,-2.6924,-2.6924,-2.6924,0,-2.6434,-2.6499,-2.6508,-2.6555,-2.6581,-2.6576,-2.6626,-2.665,-2.6699,-2.6716,-2.6701,-2.6789,-2.6813,-2.6882,-2.6901,-2.692,-2.6933,-2.6913,-2.6995,-2.7003,-2.701,-2.7035,-2.7045,-2.6926,-2.6926,-2.6926,-2.6926,0,-2.6529,-2.6574,-2.661,-2.6657,-2.6686,-2.6735,-2.6751,-2.6779,-2.6781,-2.6796,-2.6855,-2.6883,-2.6928,-2.6945,-2.6947,-2.7015,-2.7005,-2.6993,-2.6966,-2.7021,-2.7045,-2.7055,-2.6929,-2.6928,-2.6928,-2.6927,0,0,-2.6612,-2.6663,-2.6676,-2.6697,-2.6738,-2.6773,-2.682,-2.6864,-2.6887,-2.6921,-2.696,-2.702,-2.7008,-2.7033,-2.7039,-2.707,-2.7127,-2.7053,-2.7054,-2.7065,-2.7202,-2.721,-2.7221,-2.7124,-2.7126,-2.7127,-2.7198,0,-2.6683,-2.6767,-2.6777,-2.6852,-2.6893,-2.6889,-2.693,-2.696,-2.6974,-2.7011,-2.7027,-2.7068,-2.705,-2.7065,-2.7096,-2.7114,-2.7155,-2.7109,-2.7159,-2.7161,-2.7149,-2.7234,-2.7243,-2.7308,-2.7208,-2.7209,-2.7211,0,-2.6777,-2.6814,-2.6893,-2.6927,-2.6945,-2.6982,-2.7022,-2.7057,-2.709,-2.7098,-2.7126,-2.7127,-2.7175,-2.7146,-2.7212,-2.7181,-2.7202,-2.7214,-2.7217,-2.7221,-2.7188,-2.7239,-2.733,-2.7339,-2.7225,-2.7224,-2.7223,0,-2.6828,-2.6896,-2.6952,-2.697,-2.7012,-2.7038,-2.7057,-2.7088,-2.7113,-2.7148,-2.7164,-2.7204,-2.7226,-2.7257,-2.7268,-2.7247,-2.7333,-2.7306,-2.734,-2.734,-2.7357,-2.7356,-2.7452,-2.7373,-2.7373,-2.7373,-2.7373,0,-2.6906,-2.6954,-2.6975,-2.7009,-2.7063,-2.7073,-2.7126,-2.7143,-2.717,-2.7207,-2.7207,-2.7241,-2.7254,-2.7291,-2.73,-2.7352,-2.7362,-2.737,-2.7371,-2.7369,-2.7368,-2.7382,-2.7377,-2.7376,-2.7375,-2.7374,-2.7374,0,-2.6971,-2.6987,-2.7047,-2.7082,-2.7092,-2.713,-2.7159,-2.7191,-2.7206,-2.7252,-2.7263,-2.7286,-2.7328,-2.7343,-2.7395,-2.7401,-2.7461,-2.746,-2.745,-2.745,-2.7483,-2.7479,-2.759,-2.7605,-2.7518,-2.7519,-2.7519,0,-2.7019,-2.7055,-2.7094,-2.7119,-2.7138,-2.7178,-2.7204,-2.7216,-2.7242,-2.7282,-2.7309,-2.7352,-2.7386,-2.7454,-2.7474,-2.7514,-2.7512,-2.7549,-2.7518,-2.7514,-2.7511,-2.7508,-2.7511,-2.7554,-2.7555,-2.7555,-2.7556,0,-2.7102,-2.7108,-2.7145,-2.7185,-2.7216,-2.7248,-2.7278,-2.7299,-2.7315,-2.7344,-2.7388,-2.7415,-2.7468,-2.7509,-2.7549,-2.7568,-2.7564,-2.7566,-2.7575,-2.7573,-2.7565,-2.7568,-2.7464,-2.7563,-2.7562,-2.7562,-2.7561,-2.7561,-2.7159,-2.7191,-2.7222,-2.7264,-2.7288,-2.7317,-2.7349,-2.7367,-2.7404,-2.7447,-2.7452,-2.7499,-2.7529,-2.7583,-2.7603,-2.7639,-2.7629,-2.7644,-2.7647,-2.765,-2.7652,-2.7561,-2.7647,-2.7647,-2.7646,-2.7646,-2.7646,0,-2.724,-2.726,-2.7298,-2.7341,-2.7374,-2.7368,-2.7402,-2.7429,-2.747,-2.7499,-2.7533,-2.7583,-2.7623,-2.7646,-2.7686,-2.7711,-2.771,-2.7721,-2.7718,-2.7722,-2.7659,-2.7646,-2.772,-2.772,-2.772,-2.772,-2.772,-2.772,-2.7286,-2.734,-2.735,-2.7415,-2.7435,-2.7481,-2.75,-2.7526,-2.7549,-2.7605,-2.7638,-2.7653,-2.768,-2.7722,-2.7758,-2.7764,-2.7778,-2.7789,-2.7794,-2.7735,-2.7727,-2.772,-2.7707,-2.7793,-2.7793,-2.7854,-2.7854,-2.7855]}]]